Location: Cueva de Ratón
(10.1013°N, 67.6606°W)
Time: 09:20:57
(UTC+00:00)

Delta 7925 Rocket - Pass Details

Date: 02 December 2023
Orbit: 645 x 1645 km, 26.3° (Epoch: 27 February)

Event Time Altitude Azimuth Distance (km) Brightness Sun altitude
Rises 23:24:55 0° 268° (W) 2,935 7.9 -18.7°
Reaches altitude 10° 23:27:24 10° 279° (W) 2,049 6.6 -19.3°
Maximum altitude 23:31:34 31° 342° (NNW) 1,205 4.5 -20.2°
Enters shadow 23:33:06 26° 14° (NNE) 1,388 4.5 -20.6°
